CAPE
0 0 0 0 0 0 0 0 0 0 0 0 0 1 0 1 1 1 3 3 6 11 18 19 21 23 46
0 0 0 0 0 0 0 0 0 0 0 0 0 0 0 0 1 3 3 5 6 6 8 7 8 16 12
0 0 0 0 0 0 0 0 0 0 0 0 0 0 0 0 0 1 0 1 3 4 5 5 8 15 20
0 0 0 0 0 0 0 0 0 0 0 0 0 0 0 0 0 0 0 0 0 0 1 1 1 1 8
0 0 0 0 0 0 0 0 0 0 0 0 0 0 0 0 0 0 0 0 0 1 3 4 4 5 4
4 5 1 0 0 1 1 0 0 0 0 0 1 1 0 0 0 3 1 1 2 6 7 2 6 8 10
4 8 9 2 4 6 5 6 1 2 5 2 8 0 0 3 4 5 6 0 0 4 1 2 10 8 13
0 0 4 8 19 16 8 4 5 4 6 12 0 0 0 0 7 7 0 0 4 7 9 6 9 15 19
0 2 6 9 6 21 14 8 1 3 2 4 0 0 1 6 5 4 0 1 5 4 11 17 20 19 18
15 14 12 9 10 19 2 0 0 0 0 4 7 9 5 0 3 9 0 5 1 1 2 1 0 1 0
6 5 0 1 1 6 4 2 1 0 0 4 1 11 8 3 4 5 8 5 2 2 5 1 7 8 11
10 7 3 1 0 4 4 3 6 8 7 7 3 3 2 2 3 2 4 4 6 2 0 5 2 1 4
1 2 2 4 3 4 1 4 2 1 3 1 2 1 1 1 3 2 5 3 3 0 0 1 0 1 3
2 1 3 2 2 3 2 2 0 0 0 1 1 2 0 1 1 0 4 4 4 5 0 0 0 0 1
5 5 2 1 2 3 0 0 1 0 0 0 0 0 1 0 1 1 1 1 2 4 1 0 0 0 1
3 2 1 0 1 0 1 1 2 0 0 0 0 0 0 0 2 1 1 1 1 0 0 1 2 2 1
1 1 0 1 0 1 1 1 1 1 0 0 0 1 1 1 0 0 1 0 0 1 1 0 1 1 2
CIN
-0 -0 -0 -0 -0 -0 -0 -0 -0 -0 -0 -0 -0 -0 -0 -0 -0 -0 -0 -0 -0 -0 -1 -0 -0 -0 -0
-0 -0 -0 -0 -0 -0 -0 -0 -0 -0 -0 -0 -0 -0 -0 -0 -0 -0 -0 -0 -0 -0 -0 -0 -1 -0 -0
-0 -0 -0 -0 -0 -0 -0 -0 -0 -0 -0 -0 -0 -0 -0 -0 -0 -0 -0 -0 -0 -0 -0 -0 -0 -0 -0
-0 -0 -0 -0 -0 -0 -0 -0 -0 -0 -0 -0 -0 -0 -0 -0 -0 -0 -0 -0 -0 -0 -0 -0 -0 -0 -0
-0 -0 -0 -0 -0 -0 -0 -0 -0 -0 -0 -0 -0 -0 -0 -0 -0 -0 -0 -0 -0 -0 -0 -0 -0 -0 -0
-0 -0 -1 -0 -0 -2 -1 -1 -0 -0 -0 -0 -1 -1 -0 -0 -0 -0 -0 -0 -0 -0 -0 -0 -0 -0 -0
-0 -1 -1 -2 -2 -1 -1 -0 -0 -1 -1 -0 -1 -0 -0 -0 -0 -0 -0 -0 -0 -0 -0 -1 -0 -0 -0
-0 -0 -1 -2 -1 -1 -1 -0 -1 -3 -3 -0 -0 -0 -0 -0 -0 -0 -0 -0 -0 -0 -0 -0 -0 -0 -0
-0 -0 -0 -0 -1 -0 -0 -0 -0 -0 -1 -0 -0 -0 -1 -0 -0 -0 -0 -0 -0 -0 -0 -0 -0 -0 -0
-1 -1 -2 -0 -1 -0 -2 -0 -0 -0 -0 -0 -1 -0 -0 -0 -1 -1 -0 -0 -0 -0 -0 -0 -0 -0 -0
-0 -0 -0 -0 -0 -0 -0 -1 -0 -0 -0 -0 -0 -0 -0 -0 -1 -0 -1 -1 -1 -0 -0 -0 -0 -0 -0
-0 -0 -0 -0 -0 -0 -0 -1 -0 -0 -0 -0 -0 -0 -1 -0 -0 -1 -1 -0 -0 -1 -0 -0 -0 -0 -0
-0 -1 -2 -1 -0 -0 -0 -0 -0 -0 -0 -0 -0 -0 -0 -1 -0 -0 -0 -2 -0 -1 -0 -0 -0 -0 -0
-1 -1 -1 -1 -1 -0 -1 -2 -0 -0 -0 -0 -0 -0 -0 -1 -1 -1 -0 -0 -0 -0 -0 -0 -0 -0 -0
-1 -1 -1 -1 -1 -0 -0 -0 -0 -0 -0 -0 -0 -0 -0 -0 -0 -0 -0 -0 -1 -0 -0 -0 -0 -0 -0
-1 -1 -1 -0 -0 -0 -0 -0 -0 -0 -0 -0 -0 -0 -0 -0 -0 -0 -0 -0 -0 -0 -0 -0 -0 -0 -0
-1 -0 -0 -0 -0 -0 -0 -0 -0 -0 -0 -0 -0 -0 -0 -0 -0 -0 -0 -0 -0 -0 -1 -0 -0 -0 -0
Wind_Speed
30 30 32 33 31 31 31 31 31 31 32 32 33 34 34 34 35 36 36 37 38 38 39 40 42 41 41
34 34 33 32 33 33 32 30 30 30 31 32 32 34 35 36 36 35 36 37 38 39 39 40 40 40 42
39 36 36 34 35 34 32 32 31 31 31 32 33 34 35 35 35 36 37 37 37 38 40 41 41 42 42
41 41 40 38 36 36 36 34 35 34 34 35 35 35 36 36 37 38 37 38 39 40 40 40 40 41 43
43 43 42 40 39 37 39 39 38 37 36 34 33 34 36 37 37 37 37 38 40 42 41 41 40 41 41
43 44 44 42 40 39 40 42 44 36 37 38 39 39 38 37 38 39 40 41 42 43 42 42 42 42 42
45 44 44 41 40 41 41 42 42 41 41 44 39 42 39 37 37 37 39 42 43 43 42 43 43 43 44
36 38 38 38 38 39 41 42 42 41 36 45 42 43 41 38 36 36 38 41 41 40 40 42 43 43 43
32 35 35 35 35 35 37 41 45 42 39 43 42 42 39 36 36 35 35 35 35 34 35 35 35 38 40
29 28 27 29 30 30 34 39 41 45 35 34 37 35 38 34 29 24 33 32 29 32 36 38 37 36 36
24 25 28 25 29 30 30 32 37 40 36 37 39 35 33 36 33 34 32 30 32 33 33 32 32 32 32
28 30 30 30 30 31 30 31 31 33 35 34 32 31 33 34 35 32 30 29 30 31 31 30 30 30 31
21 27 31 32 34 35 34 32 31 26 24 21 21 29 30 34 34 31 31 29 27 27 28 26 26 24 25
20 29 30 31 32 31 31 29 26 32 19 11 9 6 19 27 29 31 28 26 24 24 24 23 23 23 24
12 18 27 31 27 24 24 23 23 22 24 19 15 13 11 7 28 26 26 26 25 23 21 21 21 22 24
16 16 16 17 17 19 19 20 21 21 21 19 16 13 11 13 13 14 16 21 27 16 9 19 26 27 30
10 11 13 14 17 17 18 19 19 20 19 15 14 12 14 13 8 8 15 13 23 23 15 15 27 29 30
Wind_Direction
317 319 318 317 318 318 318 317 316 313 310 308 304 301 300 297 294 291 288 285 283 280 278 277 275 275 275
313 313 314 315 314 314 314 315 315 315 312 309 307 304 301 298 295 293 290 286 284 281 280 278 277 276 274
306 308 308 310 310 310 311 311 311 311 311 310 309 306 303 300 297 294 291 289 286 283 281 278 277 276 275
302 302 303 305 305 305 305 307 306 307 307 306 305 305 304 302 297 294 292 289 286 285 283 281 279 277 275
300 300 300 300 300 302 302 303 303 305 304 306 307 307 305 303 299 296 293 290 288 285 281 281 280 278 276
298 296 297 298 298 298 299 300 298 304 302 302 304 303 304 303 300 296 293 290 289 286 283 281 279 277 277
294 293 294 296 296 296 297 298 297 300 301 299 302 302 303 303 301 296 293 291 289 286 283 282 279 278 276
295 294 294 296 296 297 297 297 297 299 301 297 303 301 304 303 301 298 295 292 289 287 284 283 280 279 278
300 296 295 295 295 298 298 297 296 298 302 300 302 303 305 304 302 300 299 296 292 288 287 286 286 283 281
310 305 302 300 299 300 302 300 300 298 307 305 306 307 304 306 302 304 304 300 295 292 290 286 286 284 282
315 311 307 305 305 305 306 304 301 299 303 302 301 302 300 299 300 302 301 298 295 294 292 289 285 283 284
319 312 310 309 308 308 309 307 306 304 304 305 304 302 300 299 298 302 301 299 296 294 292 290 288 285 280
330 320 312 309 307 306 307 309 310 311 312 311 309 303 299 295 296 299 298 300 300 296 294 293 291 289 287
336 322 316 313 310 312 313 315 308 261 230 222 226 261 312 303 301 297 300 301 306 301 299 297 294 291 289
344 306 291 279 277 250 247 241 240 241 247 231 219 214 212 233 279 300 301 300 302 299 303 302 298 297 292
250 245 242 241 238 239 236 234 238 241 241 235 226 211 191 197 191 201 206 223 273 318 335 309 295 294 281
235 233 232 233 239 237 235 235 238 240 236 222 213 192 196 199 69 126 196 182 241 232 201 206 239 248 257